Thompson, Ohio, United States (44086)
Lat: 41.69N, Lon: 81.05W
Wx Zone: OHZ013
Local Info
Past Weather Observations for Sunday, September 28, 2014

NOTE: This archive is for the closest National Weather Service station to Thompson. Information may differ from the station used for current weather conditions.

Click here for Long-term Archive

Time Weather Temperature Dewpoint Humidity Pressure Winds Precip Visibility
23:53
Clear
Fog
55°F / 13°C 54°F / 12°C 94% 30.06 in
(1018 mb)
Calm - 1/2SM
23:50
Clear
Fog And Mist
55°F / 13°C 54°F / 12°C 94% 30.06 in
(1018 mb)
Calm - 3/4SM
23:46
Clear
Fog And Mist
55°F / 13°C 54°F / 12°C 94% 30.06 in
(1018 mb)
Calm - 1 3/4SM
23:41
Clear
Fog And Mist
55°F / 13°C 54°F / 12°C 94% 30.06 in
(1018 mb)
Calm - 3SM
23:32
Clear
Fog And Mist
54°F / 12°C 54°F / 12°C 100% 30.06 in
(1018 mb)
Calm - 2 1/2SM
22:53
Clear
Fog And Mist
55°F / 13°C 55°F / 13°C 100% 30.06 in
(1018 mb)
Calm - 5SM
22:16
Clear
Fog And Mist
55°F / 13°C 54°F / 12°C 94% 30.06 in
(1018 mb)
Calm - 3SM
22:12
Clear
Fog And Mist
55°F / 13°C 54°F / 12°C 94% 30.06 in
(1018 mb)
Calm - 1 3/4SM
21:53
Clear
Fog And Mist
55°F / 13°C 54°F / 12°C 94% 30.09 in
(1019 mb)
Calm - 2 1/2SM
21:36
Partly Cloudy
Fog And Mist
57°F / 14°C 55°F / 13°C 94% 30.09 in
(1019 mb)
Calm - 3SM
21:26
Partly Cloudy
Fog And Mist
55°F / 13°C 54°F / 12°C 94% 30.09 in
(1019 mb)
Calm - 2 1/2SM
21:15
Partly Cloudy
Fog And Mist
57°F / 14°C 55°F / 13°C 94% 30.09 in
(1019 mb)
Calm - 1 1/4SM
21:10
Obscured
Fog And Mist
57°F / 14°C 55°F / 13°C 94% 30.09 in
(1019 mb)
Calm - 3/4SM
21:04
Partly Cloudy
Fog And Mist
57°F / 14°C 55°F / 13°C 94% 30.09 in
(1019 mb)
Calm - 1 3/4SM
20:53
Clear
Fog And Mist
55°F / 13°C 55°F / 13°C 100% 30.09 in
(1019 mb)
Calm - 6SM
20:15
Partly Cloudy
Fog And Mist
57°F / 14°C 55°F / 13°C 94% 30.09 in
(1019 mb)
Calm - 3SM
20:09
Partly Cloudy
Fog And Mist
57°F / 14°C 57°F / 14°C 100% 30.09 in
(1019 mb)
Calm - 1 1/4SM
19:53
Obscured
Fog
57°F / 14°C 57°F / 14°C 100% 30.09 in
(1019 mb)
Calm - 1/2SM
19:49
Obscured
Fog And Mist
57°F / 14°C 55°F / 13°C 94% 30.09 in
(1019 mb)
Calm - 3/4SM
19:42
Clear
Fog And Mist
57°F / 14°C 55°F / 13°C 94% 30.09 in
(1019 mb)
Calm - 2SM
18:53
Clear
Fog And Mist
61°F / 16°C 59°F / 15°C 94% 30.09 in
(1019 mb)
Calm - 6SM
17:53
Clear
64°F / 18°C 61°F / 16°C 88% 30.09 in
(1019 mb)
Calm - 10SM
16:53
Clear
70°F / 21°C 61°F / 16°C 73% 30.09 in
(1019 mb)
NNW 3.5 mph
(NNW 6 kph)
- 10SM
15:53
Clear
72°F / 22°C 61°F / 16°C 69% 30.09 in
(1019 mb)
N 3.5 mph
(N 6 kph)
- 10SM
14:53
Clear
73°F / 23°C 61°F / 16°C 65% 30.12 in
(1020 mb)
NNW 5.8 mph
(NNW 9 kph)
- 10SM
13:53
Clear
77°F / 25°C 57°F / 14°C 51% 30.12 in
(1020 mb)
Variable 3.5 mph
(Variable 6 kph)
- 10SM
12:53
Clear
75°F / 24°C 59°F / 15°C 57% 30.15 in
(1021 mb)
Calm - 10SM
11:53
Clear
72°F / 22°C 57°F / 14°C 61% 30.15 in
(1021 mb)
Calm - 10SM
10:53
Clear
72°F / 22°C 57°F / 14°C 61% 30.18 in
(1022 mb)
E 4.6 mph
(E 7 kph)
- 10SM
09:53
Clear
66°F / 19°C 57°F / 14°C 73% 30.18 in
(1022 mb)
Variable 3.5 mph
(Variable 6 kph)
- 10SM
08:53
Clear
63°F / 17°C 55°F / 13°C 77% 30.21 in
(1023 mb)
SSE 5.8 mph
(SSE 9 kph)
- 10SM
07:53
Clear
57°F / 14°C 55°F / 13°C 94% 30.21 in
(1023 mb)
SE 3.5 mph
(SE 6 kph)
- 10SM
06:53
Clear
54°F / 12°C 52°F / 11°C 94% 30.21 in
(1023 mb)
Calm - 10SM
05:53
Clear
52°F / 11°C 50°F / 10°C 94% 30.18 in
(1022 mb)
SE 3.5 mph
(SE 6 kph)
- 7SM
04:53
Clear
Fog And Mist
48°F / 9°C 48°F / 9°C 100% 30.18 in
(1022 mb)
ESE 3.5 mph
(ESE 6 kph)
- 4SM
04:23
Clear
Fog And Mist
48°F / 9°C 46°F / 8°C 94% 30.18 in
(1022 mb)
E 3.5 mph
(E 6 kph)
- 3SM
04:13
Clear
Fog And Mist
48°F / 9°C 46°F / 8°C 94% 30.18 in
(1022 mb)
Calm - 2 1/2SM
03:53
Clear
Fog And Mist
48°F / 9°C 46°F / 8°C 94% 30.21 in
(1023 mb)
Calm - 5SM
03:15
Partly Cloudy
Fog And Mist
48°F / 9°C 48°F / 9°C 100% 30.18 in
(1022 mb)
Calm - 4SM
03:07
Partly Cloudy
Fog And Mist
50°F / 10°C 48°F / 9°C 94% 30.18 in
(1022 mb)
Calm - 2SM
02:53
Obscured
Fog And Mist
48°F / 9°C 48°F / 9°C 100% 30.18 in
(1022 mb)
Calm - 1SM
02:46
Mostly Cloudy
Fog And Mist
50°F / 10°C 48°F / 9°C 94% 30.18 in
(1022 mb)
Calm - 1 1/4SM
02:19
Obscured
Fog
48°F / 9°C 48°F / 9°C 100% 30.21 in
(1023 mb)
E 3.5 mph
(E 6 kph)
- 1/2SM
02:12
Obscured
Fog And Mist
48°F / 9°C 48°F / 9°C 100% 30.21 in
(1023 mb)
E 3.5 mph
(E 6 kph)
- 1SM
02:09
Partly Cloudy
Fog And Mist
48°F / 9°C 46°F / 8°C 94% 30.21 in
(1023 mb)
E 3.5 mph
(E 6 kph)
- 2 1/2SM
01:53
Clear
Fog And Mist
48°F / 9°C 46°F / 8°C 94% 30.21 in
(1023 mb)
Calm - 5SM
00:53
Clear
Fog And Mist
50°F / 10°C 48°F / 9°C 94% 30.21 in
(1023 mb)
Calm - 5SM
Time Weather Temperature Dewpoint Humidity Pressure Winds Precip Visibility


Weather for websites

WeatherForYou.com, LLC is not responsible for any damages or problems caused by this service. Current weather conditions are obtained from the closest station including government and personal stations which may have varying degrees of accuracy. Weather forecasts are derived from the NOAA NDFD. Like all things, this site belongs to Jesus Christ... He just trusts me to maintain it. If you have any questions or comments email webmaster@weatherforyou.com

Copyright © 2014, WeatherForYou.com LLC. All rights reserved.